owner,sensor,date,latitude,longitude,sea_surface_height_above_sea_level,qcFlag 
TCOON,ioos:station:TCOON:057:1,2015-11-01T00:12:00Z,28.4460,-96.3961,4.067,1111122 
TCOON,ioos:station:TCOON:057:1,2015-11-01T01:12:00Z,28.4460,-96.3961,4.049,1111122 
TCOON,ioos:station:TCOON:057:1,2015-11-01T02:12:00Z,28.4460,-96.3961,4.054,1111122 
TCOON,ioos:station:TCOON:057:1,2015-11-01T03:12:00Z,28.4460,-96.3961,4.056,1111122 
TCOON,ioos:station:TCOON:057:1,2015-11-01T04:12:00Z,28.4460,-96.3961,4.069,1111122 
TCOON,ioos:station:TCOON:057:1,2015-11-01T05:12:00Z,28.4460,-96.3961,4.077,1111122 
TCOON,ioos:station:TCOON:057:1,2015-11-01T06:18:00Z,28.4460,-96.3961,4.089,1111122 
TCOON,ioos:station:TCOON:057:1,2015-11-01T07:12:00Z,28.4460,-96.3961,4.068,1111122 
TCOON,ioos:station:TCOON:057:1,2015-11-01T08:12:00Z,28.4460,-96.3961,4.056,1111122 
TCOON,ioos:station:TCOON:057:1,2015-11-01T09:12:00Z,28.4460,-96.3961,4.059,1111122 
TCOON,ioos:station:TCOON:057:1,2015-11-01T10:12:00Z,28.4460,-96.3961,4.06,1111122 
TCOON,ioos:station:TCOON:057:1,2015-11-01T11:12:00Z,28.4460,-96.3961,4.06,1111122 
TCOON,ioos:station:TCOON:057:1,2015-11-01T12:12:00Z,28.4460,-96.3961,4.027,1111122 
TCOON,ioos:station:TCOON:057:1,2015-11-01T13:12:00Z,28.4460,-96.3961,3.982,1111122 
TCOON,ioos:station:TCOON:057:1,2015-11-01T14:12:00Z,28.4460,-96.3961,3.968,1111122 
TCOON,ioos:station:TCOON:057:1,2015-11-01T15:12:00Z,28.4460,-96.3961,3.926,1111122 
TCOON,ioos:station:TCOON:057:1,2015-11-01T16:12:00Z,28.4460,-96.3961,3.902,1111122 
TCOON,ioos:station:TCOON:057:1,2015-11-01T17:12:00Z,28.4460,-96.3961,3.893,1111122 
TCOON,ioos:station:TCOON:057:1,2015-11-01T19:12:00Z,28.4460,-96.3961,3.848,1111122 
TCOON,ioos:station:TCOON:057:1,2015-11-01T20:12:00Z,28.4460,-96.3961,3.829,1111122 
TCOON,ioos:station:TCOON:057:1,2015-11-01T21:12:00Z,28.4460,-96.3961,3.832,1111122 
TCOON,ioos:station:TCOON:057:1,2015-11-01T22:12:00Z,28.4460,-96.3961,3.845,1111122 
TCOON,ioos:station:TCOON:057:1,2015-11-01T23:12:00Z,28.4460,-96.3961,3.871,1111122 
TCOON,ioos:station:TCOON:057:1,2015-11-02T00:12:00Z,28.4460,-96.3961,3.895,1111122 
TCOON,ioos:station:TCOON:057:1,2015-11-02T01:12:00Z,28.4460,-96.3961,3.916,1111122 
TCOON,ioos:station:TCOON:057:1,2015-11-02T02:12:00Z,28.4460,-96.3961,3.948,1111122 
TCOON,ioos:station:TCOON:057:1,2015-11-02T03:12:00Z,28.4460,-96.3961,3.977,1111122 
TCOON,ioos:station:TCOON:057:1,2015-11-02T04:12:00Z,28.4460,-96.3961,4.008,1111122 
TCOON,ioos:station:TCOON:057:1,2015-11-02T05:18:00Z,28.4460,-96.3961,4.04,1111122 
TCOON,ioos:station:TCOON:057:1,2015-11-02T06:18:00Z,28.4460,-96.3961,4.061,1111122 
TCOON,ioos:station:TCOON:057:1,2015-11-02T07:12:00Z,28.4460,-96.3961,4.059,1111122 
TCOON,ioos:station:TCOON:057:1,2015-11-02T08:18:00Z,28.4460,-96.3961,4.055,1111122 
TCOON,ioos:station:TCOON:057:1,2015-11-02T09:12:00Z,28.4460,-96.3961,4.06,1111122 
TCOON,ioos:station:TCOON:057:1,2015-11-02T10:12:00Z,28.4460,-96.3961,4.052,1111122 
TCOON,ioos:station:TCOON:057:1,2015-11-02T11:12:00Z,28.4460,-96.3961,4.027,1111122 
TCOON,ioos:station:TCOON:057:1,2015-11-02T12:12:00Z,28.4460,-96.3961,4.029,1111122 
TCOON,ioos:station:TCOON:057:1,2015-11-02T13:12:00Z,28.4460,-96.3961,4.018,1111122 
TCOON,ioos:station:TCOON:057:1,2015-11-02T14:12:00Z,28.4460,-96.3961,3.977,1111122 
TCOON,ioos:station:TCOON:057:1,2015-11-02T15:12:00Z,28.4460,-96.3961,3.952,1111122 
TCOON,ioos:station:TCOON:057:1,2015-11-02T16:18:00Z,28.4460,-96.3961,3.905,1111122 
TCOON,ioos:station:TCOON:057:1,2015-11-02T17:12:00Z,28.4460,-96.3961,3.878,1111122 
TCOON,ioos:station:TCOON:057:1,2015-11-02T18:12:00Z,28.4460,-96.3961,3.842,1111122 
TCOON,ioos:station:TCOON:057:1,2015-11-02T19:12:00Z,28.4460,-96.3961,3.823,1111122 
TCOON,ioos:station:TCOON:057:1,2015-11-02T20:18:00Z,28.4460,-96.3961,3.792,1111122 
TCOON,ioos:station:TCOON:057:1,2015-11-02T21:12:00Z,28.4460,-96.3961,3.768,1111122 
TCOON,ioos:station:TCOON:057:1,2015-11-02T22:12:00Z,28.4460,-96.3961,3.74,1111122 
TCOON,ioos:station:TCOON:057:1,2015-11-02T23:12:00Z,28.4460,-96.3961,3.746,1111122 
TCOON,ioos:station:TCOON:057:1,2015-11-03T00:12:00Z,28.4460,-96.3961,3.748,1111122 
TCOON,ioos:station:TCOON:057:1,2015-11-03T01:12:00Z,28.4460,-96.3961,3.769,1111122 
TCOON,ioos:station:TCOON:057:1,2015-11-03T02:12:00Z,28.4460,-96.3961,3.788,1111122 
TCOON,ioos:station:TCOON:057:1,2015-11-03T03:12:00Z,28.4460,-96.3961,3.802,1111122 
TCOON,ioos:station:TCOON:057:1,2015-11-03T04:12:00Z,28.4460,-96.3961,3.832,1111122 
TCOON,ioos:station:TCOON:057:1,2015-11-03T05:12:00Z,28.4460,-96.3961,3.865,1111122 
TCOON,ioos:station:TCOON:057:1,2015-11-03T06:18:00Z,28.4460,-96.3961,3.892,1111122 
TCOON,ioos:station:TCOON:057:1,2015-11-03T07:12:00Z,28.4460,-96.3961,3.905,1111122 
TCOON,ioos:station:TCOON:057:1,2015-11-03T08:12:00Z,28.4460,-96.3961,3.919,1111122 
TCOON,ioos:station:TCOON:057:1,2015-11-03T09:12:00Z,28.4460,-96.3961,3.91,1111122 
TCOON,ioos:station:TCOON:057:1,2015-11-03T10:12:00Z,28.4460,-96.3961,3.91,1111122 
TCOON,ioos:station:TCOON:057:1,2015-11-03T11:12:00Z,28.4460,-96.3961,3.902,1111122 
TCOON,ioos:station:TCOON:057:1,2015-11-03T12:12:00Z,28.4460,-96.3961,3.893,1111122 
TCOON,ioos:station:TCOON:057:1,2015-11-03T13:12:00Z,28.4460,-96.3961,3.875,1111122 
TCOON,ioos:station:TCOON:057:1,2015-11-03T14:12:00Z,28.4460,-96.3961,3.861,1111122 
TCOON,ioos:station:TCOON:057:1,2015-11-03T15:12:00Z,28.4460,-96.3961,3.842,1111122 
TCOON,ioos:station:TCOON:057:1,2015-11-03T16:12:00Z,28.4460,-96.3961,3.822,1111122 
TCOON,ioos:station:TCOON:057:1,2015-11-03T17:12:00Z,28.4460,-96.3961,3.811,1111122 
TCOON,ioos:station:TCOON:057:1,2015-11-03T18:12:00Z,28.4460,-96.3961,3.783,1111122 
TCOON,ioos:station:TCOON:057:1,2015-11-03T19:12:00Z,28.4460,-96.3961,3.777,1111122 
TCOON,ioos:station:TCOON:057:1,2015-11-03T20:18:00Z,28.4460,-96.3961,3.763,1111122 
TCOON,ioos:station:TCOON:057:1,2015-11-03T21:18:00Z,28.4460,-96.3961,3.744,1111122 
TCOON,ioos:station:TCOON:057:1,2015-11-03T22:12:00Z,28.4460,-96.3961,3.731,1111122 
TCOON,ioos:station:TCOON:057:1,2015-11-03T23:12:00Z,28.4460,-96.3961,3.73,1111122 
TCOON,ioos:station:TCOON:057:1,2015-11-04T00:12:00Z,28.4460,-96.3961,3.729,1111122 
TCOON,ioos:station:TCOON:057:1,2015-11-04T01:12:00Z,28.4460,-96.3961,3.742,1111122 
TCOON,ioos:station:TCOON:057:1,2015-11-04T02:12:00Z,28.4460,-96.3961,3.763,1111122 
TCOON,ioos:station:TCOON:057:1,2015-11-04T03:12:00Z,28.4460,-96.3961,3.799,1111122 
TCOON,ioos:station:TCOON:057:1,2015-11-04T04:06:00Z,28.4460,-96.3961,3.823,1111122 
TCOON,ioos:station:TCOON:057:1,2015-11-04T05:12:00Z,28.4460,-96.3961,3.855,1111122 
TCOON,ioos:station:TCOON:057:1,2015-11-04T06:12:00Z,28.4460,-96.3961,3.886,1111122 
TCOON,ioos:station:TCOON:057:1,2015-11-04T07:12:00Z,28.4460,-96.3961,3.912,1111122 
TCOON,ioos:station:TCOON:057:1,2015-11-04T08:12:00Z,28.4460,-96.3961,3.927,1111122 
TCOON,ioos:station:TCOON:057:1,2015-11-04T09:12:00Z,28.4460,-96.3961,3.937,1111122 
TCOON,ioos:station:TCOON:057:1,2015-11-04T10:12:00Z,28.4460,-96.3961,3.939,1111122 
TCOON,ioos:station:TCOON:057:1,2015-11-04T11:12:00Z,28.4460,-96.3961,3.945,1111122 
TCOON,ioos:station:TCOON:057:1,2015-11-04T12:12:00Z,28.4460,-96.3961,3.935,1111122 
TCOON,ioos:station:TCOON:057:1,2015-11-04T13:12:00Z,28.4460,-96.3961,3.924,1111122 
TCOON,ioos:station:TCOON:057:1,2015-11-04T14:12:00Z,28.4460,-96.3961,3.924,1111122 
TCOON,ioos:station:TCOON:057:1,2015-11-04T15:06:00Z,28.4460,-96.3961,3.911,1111122 
TCOON,ioos:station:TCOON:057:1,2015-11-04T16:18:00Z,28.4460,-96.3961,3.898,1111122 
TCOON,ioos:station:TCOON:057:1,2015-11-04T18:06:00Z,28.4460,-96.3961,3.867,1111122 
TCOON,ioos:station:TCOON:057:1,2015-11-04T19:18:00Z,28.4460,-96.3961,3.85,1111122 
TCOON,ioos:station:TCOON:057:1,2015-11-04T20:18:00Z,28.4460,-96.3961,3.841,1111122 
TCOON,ioos:station:TCOON:057:1,2015-11-04T21:12:00Z,28.4460,-96.3961,3.825,1111122 
TCOON,ioos:station:TCOON:057:1,2015-11-04T22:12:00Z,28.4460,-96.3961,3.82,1111122 
TCOON,ioos:station:TCOON:057:1,2015-11-04T23:12:00Z,28.4460,-96.3961,3.809,1111122 
TCOON,ioos:station:TCOON:057:1,2015-11-05T00:12:00Z,28.4460,-96.3961,3.804,1111122 
TCOON,ioos:station:TCOON:057:1,2015-11-05T01:12:00Z,28.4460,-96.3961,3.809,1111122 
TCOON,ioos:station:TCOON:057:1,2015-11-05T02:12:00Z,28.4460,-96.3961,3.827,1111122 
TCOON,ioos:station:TCOON:057:1,2015-11-05T03:12:00Z,28.4460,-96.3961,3.842,1111122 
TCOON,ioos:station:TCOON:057:1,2015-11-05T04:12:00Z,28.4460,-96.3961,3.868,1111122 
TCOON,ioos:station:TCOON:057:1,2015-11-05T05:12:00Z,28.4460,-96.3961,3.879,1111122 
TCOON,ioos:station:TCOON:057:1,2015-11-05T06:18:00Z,28.4460,-96.3961,3.903,1111122 
TCOON,ioos:station:TCOON:057:1,2015-11-05T07:12:00Z,28.4460,-96.3961,3.921,1111122 
TCOON,ioos:station:TCOON:057:1,2015-11-05T08:12:00Z,28.4460,-96.3961,3.927,1111122 
TCOON,ioos:station:TCOON:057:1,2015-11-05T09:12:00Z,28.4460,-96.3961,3.951,1111122 
TCOON,ioos:station:TCOON:057:1,2015-11-05T10:12:00Z,28.4460,-96.3961,3.951,1111122 
TCOON,ioos:station:TCOON:057:1,2015-11-05T11:12:00Z,28.4460,-96.3961,3.949,1111122 
TCOON,ioos:station:TCOON:057:1,2015-11-05T12:12:00Z,28.4460,-96.3961,3.937,1111122 
TCOON,ioos:station:TCOON:057:1,2015-11-05T13:12:00Z,28.4460,-96.3961,3.932,1111122 
TCOON,ioos:station:TCOON:057:1,2015-11-05T14:12:00Z,28.4460,-96.3961,3.927,1111122 
TCOON,ioos:station:TCOON:057:1,2015-11-05T15:12:00Z,28.4460,-96.3961,3.921,1111122 
TCOON,ioos:station:TCOON:057:1,2015-11-05T16:12:00Z,28.4460,-96.3961,3.912,1111122 
TCOON,ioos:station:TCOON:057:1,2015-11-05T17:12:00Z,28.4460,-96.3961,3.907,1111122 
TCOON,ioos:station:TCOON:057:1,2015-11-05T18:12:00Z,28.4460,-96.3961,3.905,1111122 
TCOON,ioos:station:TCOON:057:1,2015-11-05T19:12:00Z,28.4460,-96.3961,3.895,1111122 
TCOON,ioos:station:TCOON:057:1,2015-11-05T20:12:00Z,28.4460,-96.3961,3.894,1111122 
TCOON,ioos:station:TCOON:057:1,2015-11-05T21:12:00Z,28.4460,-96.3961,3.888,1111122 
TCOON,ioos:station:TCOON:057:1,2015-11-05T22:12:00Z,28.4460,-96.3961,3.881,1111122 
TCOON,ioos:station:TCOON:057:1,2015-11-05T23:12:00Z,28.4460,-96.3961,3.883,1111122 
TCOON,ioos:station:TCOON:057:1,2015-11-06T00:12:00Z,28.4460,-96.3961,3.873,1111122 
TCOON,ioos:station:TCOON:057:1,2015-11-06T01:12:00Z,28.4460,-96.3961,3.863,1111122 
TCOON,ioos:station:TCOON:057:1,2015-11-06T02:12:00Z,28.4460,-96.3961,3.86,1111122 
TCOON,ioos:station:TCOON:057:1,2015-11-06T03:12:00Z,28.4460,-96.3961,3.867,1111122 
TCOON,ioos:station:TCOON:057:1,2015-11-06T04:12:00Z,28.4460,-96.3961,3.878,1111122 
TCOON,ioos:station:TCOON:057:1,2015-11-06T05:12:00Z,28.4460,-96.3961,3.897,1111122 
TCOON,ioos:station:TCOON:057:1,2015-11-06T06:12:00Z,28.4460,-96.3961,3.906,1111122 
TCOON,ioos:station:TCOON:057:1,2015-11-06T07:12:00Z,28.4460,-96.3961,3.899,1111122 
TCOON,ioos:station:TCOON:057:1,2015-11-06T08:12:00Z,28.4460,-96.3961,3.916,1111122 
TCOON,ioos:station:TCOON:057:1,2015-11-06T09:12:00Z,28.4460,-96.3961,3.913,1111122 
TCOON,ioos:station:TCOON:057:1,2015-11-06T10:06:00Z,28.4460,-96.3961,3.915,1111122 
TCOON,ioos:station:TCOON:057:1,2015-11-06T11:12:00Z,28.4460,-96.3961,3.903,1111122 
TCOON,ioos:station:TCOON:057:1,2015-11-06T12:06:00Z,28.4460,-96.3961,3.886,1111122 
TCOON,ioos:station:TCOON:057:1,2015-11-06T13:12:00Z,28.4460,-96.3961,3.874,1111122 
TCOON,ioos:station:TCOON:057:1,2015-11-06T14:12:00Z,28.4460,-96.3961,3.869,1111122 
TCOON,ioos:station:TCOON:057:1,2015-11-06T15:12:00Z,28.4460,-96.3961,3.846,1111122 
TCOON,ioos:station:TCOON:057:1,2015-11-06T16:12:00Z,28.4460,-96.3961,3.851,1111122 
TCOON,ioos:station:TCOON:057:1,2015-11-06T17:12:00Z,28.4460,-96.3961,3.858,1111122 
TCOON,ioos:station:TCOON:057:1,2015-11-06T18:12:00Z,28.4460,-96.3961,3.854,1111122 
TCOON,ioos:station:TCOON:057:1,2015-11-06T19:12:00Z,28.4460,-96.3961,3.863,1111122 
TCOON,ioos:station:TCOON:057:1,2015-11-06T20:12:00Z,28.4460,-96.3961,3.853,1111122 
TCOON,ioos:station:TCOON:057:1,2015-11-06T21:12:00Z,28.4460,-96.3961,3.861,1111122 
TCOON,ioos:station:TCOON:057:1,2015-11-06T22:12:00Z,28.4460,-96.3961,3.86,1111122 
TCOON,ioos:station:TCOON:057:1,2015-11-06T23:12:00Z,28.4460,-96.3961,3.85,1111122 
TCOON,ioos:station:TCOON:057:1,2015-11-07T00:12:00Z,28.4460,-96.3961,3.855,1111122 
TCOON,ioos:station:TCOON:057:1,2015-11-07T01:12:00Z,28.4460,-96.3961,3.848,1111122 
TCOON,ioos:station:TCOON:057:1,2015-11-07T02:12:00Z,28.4460,-96.3961,3.857,1111122 
TCOON,ioos:station:TCOON:057:1,2015-11-07T03:12:00Z,28.4460,-96.3961,3.86,1111122 
TCOON,ioos:station:TCOON:057:1,2015-11-07T04:12:00Z,28.4460,-96.3961,3.861,1111122 
TCOON,ioos:station:TCOON:057:1,2015-11-07T05:12:00Z,28.4460,-96.3961,3.878,1111122 
TCOON,ioos:station:TCOON:057:1,2015-11-07T06:12:00Z,28.4460,-96.3961,3.889,1111122 
TCOON,ioos:station:TCOON:057:1,2015-11-07T07:12:00Z,28.4460,-96.3961,3.891,1111122 
TCOON,ioos:station:TCOON:057:1,2015-11-07T08:12:00Z,28.4460,-96.3961,3.893,1111122 
TCOON,ioos:station:TCOON:057:1,2015-11-07T09:12:00Z,28.4460,-96.3961,3.887,1111122 
TCOON,ioos:station:TCOON:057:1,2015-11-07T10:12:00Z,28.4460,-96.3961,3.888,1111122 
TCOON,ioos:station:TCOON:057:1,2015-11-07T11:12:00Z,28.4460,-96.3961,3.888,1111122 
TCOON,ioos:station:TCOON:057:1,2015-11-07T12:12:00Z,28.4460,-96.3961,3.897,1111122 
TCOON,ioos:station:TCOON:057:1,2015-11-07T13:12:00Z,28.4460,-96.3961,3.872,1111122 
TCOON,ioos:station:TCOON:057:1,2015-11-07T14:12:00Z,28.4460,-96.3961,3.85,1111122 
TCOON,ioos:station:TCOON:057:1,2015-11-07T15:12:00Z,28.4460,-96.3961,3.856,1111122 
TCOON,ioos:station:TCOON:057:1,2015-11-07T16:12:00Z,28.4460,-96.3961,3.899,1111122 
TCOON,ioos:station:TCOON:057:1,2015-11-07T17:12:00Z,28.4460,-96.3961,3.867,1111122 
TCOON,ioos:station:TCOON:057:1,2015-11-07T18:12:00Z,28.4460,-96.3961,3.854,1111122 
TCOON,ioos:station:TCOON:057:1,2015-11-07T19:12:00Z,28.4460,-96.3961,3.843,1111122 
TCOON,ioos:station:TCOON:057:1,2015-11-07T20:42:00Z,28.4460,-96.3961,3.844,1111122 
TCOON,ioos:station:TCOON:057:1,2015-11-07T21:12:00Z,28.4460,-96.3961,3.869,1111122 
TCOON,ioos:station:TCOON:057:1,2015-11-07T22:06:00Z,28.4460,-96.3961,3.848,1111122 
TCOON,ioos:station:TCOON:057:1,2015-11-07T23:42:00Z,28.4460,-96.3961,3.814,1111122 
TCOON,ioos:station:TCOON:057:1,2015-11-08T00:06:00Z,28.4460,-96.3961,3.812,1111122 
TCOON,ioos:station:TCOON:057:1,2015-11-08T01:18:00Z,28.4460,-96.3961,3.833,1111122 
TCOON,ioos:station:TCOON:057:1,2015-11-08T02:18:00Z,28.4460,-96.3961,3.844,1111122 
TCOON,ioos:station:TCOON:057:1,2015-11-08T03:12:00Z,28.4460,-96.3961,3.874,1111122 
TCOON,ioos:station:TCOON:057:1,2015-11-08T04:12:00Z,28.4460,-96.3961,3.869,1111122 
TCOON,ioos:station:TCOON:057:1,2015-11-08T05:18:00Z,28.4460,-96.3961,3.924,1111122 
TCOON,ioos:station:TCOON:057:1,2015-11-08T06:12:00Z,28.4460,-96.3961,3.975,1111122 
TCOON,ioos:station:TCOON:057:1,2015-11-08T07:18:00Z,28.4460,-96.3961,3.953,1111122 
TCOON,ioos:station:TCOON:057:1,2015-11-08T08:18:00Z,28.4460,-96.3961,3.934,1111122 
TCOON,ioos:station:TCOON:057:1,2015-11-08T09:18:00Z,28.4460,-96.3961,3.934,1111122 
TCOON,ioos:station:TCOON:057:1,2015-11-08T10:18:00Z,28.4460,-96.3961,3.946,1111122 
TCOON,ioos:station:TCOON:057:1,2015-11-08T11:18:00Z,28.4460,-96.3961,3.936,1111122 
TCOON,ioos:station:TCOON:057:1,2015-11-08T12:12:00Z,28.4460,-96.3961,3.906,1111122 
TCOON,ioos:station:TCOON:057:1,2015-11-08T13:18:00Z,28.4460,-96.3961,3.899,1111122 
TCOON,ioos:station:TCOON:057:1,2015-11-08T14:12:00Z,28.4460,-96.3961,3.867,1111122 
TCOON,ioos:station:TCOON:057:1,2015-11-08T15:18:00Z,28.4460,-96.3961,3.883,1111122 
TCOON,ioos:station:TCOON:057:1,2015-11-08T16:12:00Z,28.4460,-96.3961,3.881,1111122 
TCOON,ioos:station:TCOON:057:1,2015-11-08T17:12:00Z,28.4460,-96.3961,3.888,1111122 
TCOON,ioos:station:TCOON:057:1,2015-11-08T18:12:00Z,28.4460,-96.3961,3.905,1111122 
TCOON,ioos:station:TCOON:057:1,2015-11-08T19:12:00Z,28.4460,-96.3961,3.907,1111122 
TCOON,ioos:station:TCOON:057:1,2015-11-08T20:12:00Z,28.4460,-96.3961,3.932,1111122 
TCOON,ioos:station:TCOON:057:1,2015-11-08T21:12:00Z,28.4460,-96.3961,3.971,1111122 
TCOON,ioos:station:TCOON:057:1,2015-11-08T22:12:00Z,28.4460,-96.3961,3.994,1111122 
TCOON,ioos:station:TCOON:057:1,2015-11-08T23:30:00Z,28.4460,-96.3961,4.011,1111122 
TCOON,ioos:station:TCOON:057:1,2015-11-09T00:12:00Z,28.4460,-96.3961,4.023,1111122 
TCOON,ioos:station:TCOON:057:1,2015-11-09T01:12:00Z,28.4460,-96.3961,4.015,1111122 
TCOON,ioos:station:TCOON:057:1,2015-11-09T02:12:00Z,28.4460,-96.3961,4.002,1111122 
TCOON,ioos:station:TCOON:057:1,2015-11-09T03:12:00Z,28.4460,-96.3961,4.012,1111122 
TCOON,ioos:station:TCOON:057:1,2015-11-09T04:12:00Z,28.4460,-96.3961,4.017,1111122 
TCOON,ioos:station:TCOON:057:1,2015-11-09T05:12:00Z,28.4460,-96.3961,4.019,1111122 
TCOON,ioos:station:TCOON:057:1,2015-11-09T06:12:00Z,28.4460,-96.3961,4.002,1111122 
TCOON,ioos:station:TCOON:057:1,2015-11-09T07:12:00Z,28.4460,-96.3961,3.983,1111122 
TCOON,ioos:station:TCOON:057:1,2015-11-09T08:12:00Z,28.4460,-96.3961,3.985,1111122 
TCOON,ioos:station:TCOON:057:1,2015-11-09T09:12:00Z,28.4460,-96.3961,3.969,1111122 
TCOON,ioos:station:TCOON:057:1,2015-11-09T10:12:00Z,28.4460,-96.3961,3.944,1111122 
TCOON,ioos:station:TCOON:057:1,2015-11-09T11:12:00Z,28.4460,-96.3961,3.919,1111122 
TCOON,ioos:station:TCOON:057:1,2015-11-09T12:12:00Z,28.4460,-96.3961,3.9,1111122 
TCOON,ioos:station:TCOON:057:1,2015-11-09T13:12:00Z,28.4460,-96.3961,3.887,1111122 
TCOON,ioos:station:TCOON:057:1,2015-11-09T14:12:00Z,28.4460,-96.3961,3.863,1111122 
TCOON,ioos:station:TCOON:057:1,2015-11-09T15:12:00Z,28.4460,-96.3961,3.838,1111122 
TCOON,ioos:station:TCOON:057:1,2015-11-09T16:12:00Z,28.4460,-96.3961,3.833,1111122 
TCOON,ioos:station:TCOON:057:1,2015-11-09T17:30:00Z,28.4460,-96.3961,3.824,1111122 
TCOON,ioos:station:TCOON:057:1,2015-11-09T18:12:00Z,28.4460,-96.3961,3.821,1111122 
TCOON,ioos:station:TCOON:057:1,2015-11-09T19:12:00Z,28.4460,-96.3961,3.841,1111122 
TCOON,ioos:station:TCOON:057:1,2015-11-09T20:12:00Z,28.4460,-96.3961,3.864,1111122 
TCOON,ioos:station:TCOON:057:1,2015-11-09T21:12:00Z,28.4460,-96.3961,3.878,1111122 
TCOON,ioos:station:TCOON:057:1,2015-11-09T22:18:00Z,28.4460,-96.3961,3.914,1111122 
TCOON,ioos:station:TCOON:057:1,2015-11-09T23:30:00Z,28.4460,-96.3961,3.933,1111122 
TCOON,ioos:station:TCOON:057:1,2015-11-10T00:12:00Z,28.4460,-96.3961,3.954,1111122 
TCOON,ioos:station:TCOON:057:1,2015-11-10T01:12:00Z,28.4460,-96.3961,3.958,1111122 
TCOON,ioos:station:TCOON:057:1,2015-11-10T02:12:00Z,28.4460,-96.3961,3.962,1111122 
TCOON,ioos:station:TCOON:057:1,2015-11-10T03:12:00Z,28.4460,-96.3961,3.967,1111122 
TCOON,ioos:station:TCOON:057:1,2015-11-10T04:12:00Z,28.4460,-96.3961,3.955,1111122 
TCOON,ioos:station:TCOON:057:1,2015-11-10T05:12:00Z,28.4460,-96.3961,3.959,1111122 
TCOON,ioos:station:TCOON:057:1,2015-11-10T06:12:00Z,28.4460,-96.3961,3.952,1111122 
TCOON,ioos:station:TCOON:057:1,2015-11-10T07:12:00Z,28.4460,-96.3961,3.952,1111122 
TCOON,ioos:station:TCOON:057:1,2015-11-10T08:12:00Z,28.4460,-96.3961,3.94,1111122 
TCOON,ioos:station:TCOON:057:1,2015-11-10T09:30:00Z,28.4460,-96.3961,3.922,1111122 
TCOON,ioos:station:TCOON:057:1,2015-11-10T10:12:00Z,28.4460,-96.3961,3.907,1111122 
TCOON,ioos:station:TCOON:057:1,2015-11-10T11:12:00Z,28.4460,-96.3961,3.888,1111122 
TCOON,ioos:station:TCOON:057:1,2015-11-10T12:12:00Z,28.4460,-96.3961,3.863,1111122 
TCOON,ioos:station:TCOON:057:1,2015-11-10T13:12:00Z,28.4460,-96.3961,3.848,1111122 
TCOON,ioos:station:TCOON:057:1,2015-11-10T14:12:00Z,28.4460,-96.3961,3.819,1111122 
TCOON,ioos:station:TCOON:057:1,2015-11-10T15:12:00Z,28.4460,-96.3961,3.798,1111122 
TCOON,ioos:station:TCOON:057:1,2015-11-10T16:12:00Z,28.4460,-96.3961,3.783,1111122 
TCOON,ioos:station:TCOON:057:1,2015-11-10T17:12:00Z,28.4460,-96.3961,3.782,1111122 
TCOON,ioos:station:TCOON:057:1,2015-11-10T18:12:00Z,28.4460,-96.3961,3.794,1111122 
TCOON,ioos:station:TCOON:057:1,2015-11-10T19:12:00Z,28.4460,-96.3961,3.814,1111122 
TCOON,ioos:station:TCOON:057:1,2015-11-10T20:18:00Z,28.4460,-96.3961,3.836,1111122 
TCOON,ioos:station:TCOON:057:1,2015-11-10T21:12:00Z,28.4460,-96.3961,3.865,1111122 
TCOON,ioos:station:TCOON:057:1,2015-11-10T22:06:00Z,28.4460,-96.3961,3.891,1111122 
TCOON,ioos:station:TCOON:057:1,2015-11-10T23:12:00Z,28.4460,-96.3961,3.915,1111122 
TCOON,ioos:station:TCOON:057:1,2015-11-11T00:12:00Z,28.4460,-96.3961,3.93,1111122 
TCOON,ioos:station:TCOON:057:1,2015-11-11T01:12:00Z,28.4460,-96.3961,3.944,1111122 
TCOON,ioos:station:TCOON:057:1,2015-11-11T02:12:00Z,28.4460,-96.3961,3.958,1111122 
TCOON,ioos:station:TCOON:057:1,2015-11-11T03:12:00Z,28.4460,-96.3961,3.956,1111122 
TCOON,ioos:station:TCOON:057:1,2015-11-11T04:12:00Z,28.4460,-96.3961,3.951,1111122 
TCOON,ioos:station:TCOON:057:1,2015-11-11T05:06:00Z,28.4460,-96.3961,3.959,1111122 
TCOON,ioos:station:TCOON:057:1,2015-11-11T06:12:00Z,28.4460,-96.3961,3.954,1111122 
TCOON,ioos:station:TCOON:057:1,2015-11-11T07:18:00Z,28.4460,-96.3961,3.95,1111122 
TCOON,ioos:station:TCOON:057:1,2015-11-11T08:12:00Z,28.4460,-96.3961,3.946,1111122 
TCOON,ioos:station:TCOON:057:1,2015-11-11T09:30:00Z,28.4460,-96.3961,3.93,1111122 
TCOON,ioos:station:TCOON:057:1,2015-11-11T10:12:00Z,28.4460,-96.3961,3.918,1111122 
TCOON,ioos:station:TCOON:057:1,2015-11-11T11:12:00Z,28.4460,-96.3961,3.903,1111122 
TCOON,ioos:station:TCOON:057:1,2015-11-11T12:12:00Z,28.4460,-96.3961,3.868,1111122 
TCOON,ioos:station:TCOON:057:1,2015-11-11T13:12:00Z,28.4460,-96.3961,3.846,1111122 
TCOON,ioos:station:TCOON:057:1,2015-11-11T14:12:00Z,28.4460,-96.3961,3.825,1111122 
TCOON,ioos:station:TCOON:057:1,2015-11-11T15:12:00Z,28.4460,-96.3961,3.803,1111122 
TCOON,ioos:station:TCOON:057:1,2015-11-11T16:12:00Z,28.4460,-96.3961,3.777,1111122 
TCOON,ioos:station:TCOON:057:1,2015-11-11T17:12:00Z,28.4460,-96.3961,3.754,1111122 
TCOON,ioos:station:TCOON:057:1,2015-11-11T18:12:00Z,28.4460,-96.3961,3.754,1111122 
TCOON,ioos:station:TCOON:057:1,2015-11-11T19:18:00Z,28.4460,-96.3961,3.767,1111122 
TCOON,ioos:station:TCOON:057:1,2015-11-11T20:12:00Z,28.4460,-96.3961,3.789,1111122 
TCOON,ioos:station:TCOON:057:1,2015-11-11T21:12:00Z,28.4460,-96.3961,3.832,1111122 
TCOON,ioos:station:TCOON:057:1,2015-11-11T22:12:00Z,28.4460,-96.3961,3.844,1111122 
TCOON,ioos:station:TCOON:057:1,2015-11-11T23:18:00Z,28.4460,-96.3961,3.883,1111122 
TCOON,ioos:station:TCOON:057:1,2015-11-12T00:12:00Z,28.4460,-96.3961,3.911,1111122 
TCOON,ioos:station:TCOON:057:1,2015-11-12T01:24:00Z,28.4460,-96.3961,3.924,1111122 
TCOON,ioos:station:TCOON:057:1,2015-11-12T02:54:00Z,28.4460,-96.3961,3.925,1111122 
TCOON,ioos:station:TCOON:057:1,2015-11-12T03:12:00Z,28.4460,-96.3961,3.923,1111122 
TCOON,ioos:station:TCOON:057:1,2015-11-12T04:12:00Z,28.4460,-96.3961,3.918,1111122 
TCOON,ioos:station:TCOON:057:1,2015-11-12T05:12:00Z,28.4460,-96.3961,3.918,1111122 
TCOON,ioos:station:TCOON:057:1,2015-11-12T06:12:00Z,28.4460,-96.3961,3.907,1111122 
TCOON,ioos:station:TCOON:057:1,2015-11-12T07:12:00Z,28.4460,-96.3961,3.899,1111122 
TCOON,ioos:station:TCOON:057:1,2015-11-12T08:12:00Z,28.4460,-96.3961,3.992,1111122 
TCOON,ioos:station:TCOON:057:1,2015-11-12T09:12:00Z,28.4460,-96.3961,3.879,1111122 
TCOON,ioos:station:TCOON:057:1,2015-11-12T10:12:00Z,28.4460,-96.3961,3.848,1111122 
TCOON,ioos:station:TCOON:057:1,2015-11-12T11:12:00Z,28.4460,-96.3961,3.787,1111122 
TCOON,ioos:station:TCOON:057:1,2015-11-12T12:12:00Z,28.4460,-96.3961,3.746,1111122 
TCOON,ioos:station:TCOON:057:1,2015-11-12T13:12:00Z,28.4460,-96.3961,3.711,1111122 
TCOON,ioos:station:TCOON:057:1,2015-11-12T14:12:00Z,28.4460,-96.3961,3.683,1111122 
TCOON,ioos:station:TCOON:057:1,2015-11-12T15:12:00Z,28.4460,-96.3961,3.666,1111122 
TCOON,ioos:station:TCOON:057:1,2015-11-12T16:12:00Z,28.4460,-96.3961,3.664,1111122 
TCOON,ioos:station:TCOON:057:1,2015-11-12T17:12:00Z,28.4460,-96.3961,3.647,1111122 
TCOON,ioos:station:TCOON:057:1,2015-11-12T18:12:00Z,28.4460,-96.3961,3.641,1111122 
TCOON,ioos:station:TCOON:057:1,2015-11-12T19:12:00Z,28.4460,-96.3961,3.648,1111122 
TCOON,ioos:station:TCOON:057:1,2015-11-12T20:12:00Z,28.4460,-96.3961,3.674,1111122 
TCOON,ioos:station:TCOON:057:1,2015-11-12T21:12:00Z,28.4460,-96.3961,3.7,1111122 
TCOON,ioos:station:TCOON:057:1,2015-11-12T22:12:00Z,28.4460,-96.3961,3.732,1111122 